Satellite: OBJECT J
Catalog number: 38766
Epoch time:      12285.62829259
Element set:    0030
Inclination:      064.6721 deg
RA of node:       315.6698 deg
Eccentricity:    0.0219494
Arg of perigee:   281.5491 deg
Mean anomaly:     228.0895 deg
Mean motion:   14.79395065 rev/day
Decay rate:      3.206e-05 rev/day^2
Epoch rev:           00408
Checksum:              331

Satellite: 1998067CN
Catalog number: 38852
Epoch time:      12284.94161481
Element set:    0008
Inclination:      051.6480 deg
RA of node:       266.2171 deg
Eccentricity:    0.0019250
Arg of perigee:   144.9617 deg
Mean anomaly:     215.2645 deg
Mean motion:   15.51537498 rev/day
Decay rate:     3.4078e-04 rev/day^2
Epoch rev:           00091
Checksum:              335

Satellite: 1998067CP
Catalog number: 38853
Epoch time:      12284.94147275
Element set:    0007
Inclination:      051.6475 deg
RA of node:       266.2191 deg
Eccentricity:    0.0014925
Arg of perigee:   157.2300 deg
Mean anomaly:     202.9281 deg
Mean motion:   15.51613332 rev/day
Decay rate:     4.0671e-04 rev/day^2
Epoch rev:           00097
Checksum:              319

Satellite: 1998067CQ
Catalog number: 38854
Epoch time:      12284.87666330
Element set:    0006
Inclination:      051.6479 deg
RA of node:       266.5332 deg
Eccentricity:    0.0014399
Arg of perigee:   152.6575 deg
Mean anomaly:     207.5187 deg
Mean motion:   15.51770880 rev/day
Decay rate:     5.2033e-04 rev/day^2
Epoch rev:           00096
Checksum:              353

Satellite: 1998067CR
Catalog number: 38855
Epoch time:      12284.94118099
Element set:    0008
Inclination:      051.6493 deg
RA of node:       266.2168 deg
Eccentricity:    0.0014236
Arg of perigee:   155.7883 deg
Mean anomaly:     204.3806 deg
Mean motion:   15.51737119 rev/day
Decay rate:     4.9463e-04 rev/day^2
Epoch rev:           00086
Checksum:              357

/EX




More information about the Keps mailing list